格洛纳斯M-717 COSMOS 2426 [GLONASS-M]

导读

COSMOS 2426(GLONASS)是独联体(CIS)于2006年12月25日发射的格洛纳斯全球导航卫星,它隶属于俄罗斯GLONASS导航星座,该星座是全球第二个全球导航卫星系统,它部署在约19100公里高度的中地球轨道上,轨道倾角约64.8度,运行周期约11小时15分。 它搭载铯原子钟提供精准时标,配备激光反射镜用于地面测距,可广播L1/L2载波导航信号,提供军民两用定位、导航与授时服务,为高纬度地区导航带来了更优异的可视性,助力GLONASS系统补网完善全球覆盖能力。

基本信息
目录编号:
29671
目录名称:
COSMOS 2426 (GLONASS)
国际标识:
2006-062B
轨道中心:
EARTH
卫星名称:
格洛纳斯M-717
卫星全名:
格洛纳斯M-717 COSMOS 2426 [GLONASS-M]
卫星状态:
在轨 (已飞行7109 天)
发射日期:
2006-12-25 UTC
国别 :
俄罗斯(独联体) (CIS)
星等 :
--
轨道信息
数据来源 国际轨道数据 AOE轨道数据
星历时间 2026-06-09T11:21:39+0800
3天前
查看轨道信息
2026-06-06T04:00:00+0800
6天前
查看轨道信息
半长轴 25519.059km 25519.003km
偏心率 0.0021742 0.0021784
轨道倾角 64.700° 64.699°
近地点辐角 184.462° 184.480°
升交点赤经 194.809° 194.919°
平近点角 176.788° 161.631°
近地点 19085.438km 19085.275km
远地点 19196.406km 19196.457km
周期 676.171分钟 676.169分钟
每日圈数 2.129638 2.129645
详细信息
平衡模式:
三轴稳定
覆盖范围:
全球
运营商:
列舍特涅夫卫星信息系统
运营商所在国:
俄罗斯
制造商(研发单位):
列舍特涅夫卫星信息系统
制造商所在国:
俄罗斯
使用方式:
暂无
卫星简介
格洛纳斯(GLONASS )是苏联/俄罗斯研制卫星导航系统。标准配置为24颗卫星,其中18颗卫星就能保证该系统为俄罗斯境内用户提供全部服务。该卫星已退役。
2D轨道图
3D轨道图
轨道高度分析图
轨道倾角分析图
轨道综合分析图
查看轨道综合分析图